COSMOS 2251 DEB, 40799

Orbit data source: Space-Track

COSMOS 2251 DEB, 40799 is space debris in LEO originally from a launch on Wed, 16 Jun 1993 UTC launched from the Plesetsk Missile And Space Complex (PKMTR). The debris from Iridium 33, an American commercial communications satellite, has been tracked extensively since its accidental collision with the defunct Russian satellite Cosmos 2251 in 2009. This event, occurring at high speed in low Earth orbit (LEO), generated thousands of pieces of space debris, significantly increasing the risk of further collisions. The Iridium 33 debris cloud has impacted space traffic management and orbital debris mitigation strategies, making it a subject of ongoing study in space situational awareness.

Loading next visibility...
Identifier
40799, 1993-036BWC
Orbit
LEO
Country
Flag of CISCIS
Related business
Manufacturer
Unknown
Mission
Spacecraft
Bus & Motor
Unknown
Mass
Unknown
Launch date (UTC)
1993-06-16 (33 years ago)
Launch vehicle
Unknown
Launch site
Plesetsk Missile And Space Complex (PKMTR)
Object type
Payload
Rocket body
Debris
Shape & HBR
Unknown shape, 0.1 m
Radar Cross Section
Small (<0.1 m²)

Expand to show TLE details & history
Last TLE update: 2 days ago

TLE from 2 days ago
0 COSMOS 2251 DEB
1 40799U 93036BWC 26206.69317976  .00006082  00000-0  44218-3 0  9992
2 40799  73.9259 359.4361 0113930 188.9590 170.9567 14.98912550533453
Epoch: 2026-07-25T16:38Z
TLE epoch observation values (Epoch: 2026-07-25T16:38:10.731Z)
Latitude
-0°
Longitude
166.48959°
Altitude
651.15 km
Speed
7.49 km/s
True Right ascension
23h 57m 44s
True Declination
0° 00' 00"
Sunlit
Object was in full shadow at epoch
Visualization orbit readout
Latitude
Unknown
Longitude
Unknown
Altitude
Unknown
Speed
Unknown
Apparent Right ascension
Unknown
Apparent Declination
Unknown
Sunlit
N/A
Visualization observer readout
Local Sidereal Time
05:56:06
Azimuth
Unknown
Elevation
Unknown
Doppler factor
Unknown
Orbital elements
Apogee altitude
646.954 km
Perigee altitude
488.684 km
Semi-major axis
6,945.956 km
Eccentricity
0.01139
Inclination
73.9259°
RAAN
359.4361°
Arg. of periapsis
188.959°
True anomaly
171.15906°
Mean anomaly
170.9567°
Eccentric anomaly
171.05816°
Mean motion
3.74926 °/min
Orbital period
96.02 mins
BSTAR
0.00044218
Loading maneuver chart data...
Computing Atmospheric mass density...

Documentation

Showing up to 5 results
|